Wind_Speed
25 27 29 31 34 36 37 39 39 39 43 45 48 47 49 51 52 54 56 59 62 65 67 69 72 74 75 77 77 77 77 76 75 73 72 72 71 71 68 66 61 58 51 50
29 32 32 34 35 37 40 42 43 44 48 51 51 49 55 58 61 63 64 66 67 69 71 74 76 78 79 79 79 80 81 81 80 78 75 73 72 64 64 63 59 56 51 48
30 31 33 36 38 40 42 46 48 50 53 54 56 57 62 66 67 70 72 73 75 77 79 80 81 82 81 81 80 78 77 78 78 76 72 65 61 62 49 47 48 48 48 46
32 35 38 40 42 46 49 51 53 56 59 62 67 71 69 74 77 79 78 78 79 81 81 81 80 80 80 79 80 79 77 72 70 66 61 55 54 50 45 48 47 50 46 47
36 39 42 44 46 48 52 56 60 65 68 70 69 76 73 76 78 80 82 82 81 80 80 82 81 78 77 76 73 69 66 58 55 56 56 56 55 51 47 49 47 50 48 52
38 42 44 47 51 56 60 63 64 67 71 76 79 81 81 80 79 79 79 80 78 75 72 70 69 67 63 61 60 59 54 52 47 51 55 52 53 53 50 47 47 44 40 41
44 48 51 56 59 63 65 70 74 77 81 80 82 86 83 79 77 72 71 70 68 66 64 62 59 57 55 53 51 50 47 48 45 47 49 47 48 49 51 42 36 40 37 35
50 55 60 65 68 72 76 80 85 84 85 87 85 85 80 77 69 64 64 63 60 59 56 53 52 47 48 44 46 48 45 36 32 31 40 48 37 41 45 40 38 34 34 36
59 63 67 73 75 78 81 83 83 85 86 87 86 82 78 67 59 58 59 57 55 54 54 50 48 46 48 45 43 37 32 33 30 29 23 32 44 26 35 35 41 34 36 32
64 71 75 79 82 84 85 87 80 77 77 81 79 72 66 57 57 57 56 55 54 49 45 45 43 45 51 46 42 37 32 27 25 22 20 27 25 23 21 29 37 37 34 23
72 75 80 84 85 84 82 78 76 73 65 66 71 67 55 52 55 54 51 48 41 39 37 35 37 38 40 46 48 39 32 26 18 21 20 27 26 23 24 24 27 29 25 17
78 82 86 89 90 84 80 80 70 63 63 60 60 67 47 50 50 47 45 40 37 35 33 33 33 34 35 35 35 32 34 30 15 20 21 26 26 23 19 20 26 24 20 18
82 87 91 91 87 81 72 68 60 58 58 55 58 57 44 42 41 37 39 36 31 30 30 30 29 27 27 28 23 21 23 24 17 14 18 19 25 22 19 18 23 21 21 19
85 89 84 83 74 67 66 62 57 53 52 52 52 49 39 36 32 32 31 32 32 33 32 31 31 29 28 26 20 16 22 23 19 17 15 19 19 23 19 16 21 21 22 17
80 81 75 73 65 61 59 53 44 49 49 50 43 40 32 29 28 28 30 31 33 34 35 33 30 28 27 23 19 13 15 24 22 21 20 19 22 24 22 20 20 21 20 16
81 75 73 72 58 58 57 48 48 45 40 38 36 29 26 25 24 25 29 33 34 35 36 36 35 31 27 23 20 13 11 18 24 23 24 24 24 23 22 21 26 25 24 20
75 69 63 63 56 56 48 45 44 41 31 30 26 22 21 20 21 25 28 31 35 37 38 39 39 33 28 24 21 16 13 17 22 26 29 28 24 21 21 29 28 32 27 22
66 62 60 58 55 51 44 41 39 35 25 23 24 21 20 21 20 26 30 33 39 41 40 41 40 33 26 23 21 20 17 13 18 31 31 32 25 19 20 32 34 31 28 27
62 58 57 57 56 51 41 35 29 27 19 21 23 27 21 20 20 25 30 34 40 44 39 34 29 24 23 22 20 21 21 15 17 25 32 33 28 18 18 26 30 28 27 29
57 54 54 52 51 49 40 32 25 24 21 23 23 25 24 21 21 24 30 35 39 42 32 26 22 18 18 19 17 18 21 20 21 24 31 32 26 18 19 18 25 27 30 34
53 53 51 47 49 44 38 31 22 23 23 20 20 24 23 18 23 28 32 36 42 36 25 25 25 20 20 22 19 17 23 25 25 25 28 28 28 28 19 11 29 30 37 32
54 52 47 47 45 39 30 23 21 23 18 20 17 21 18 17 23 29 34 38 43 30 25 28 26 25 24 26 22 20 26 31 30 28 29 31 27 32 14 20 28 28 27 26
50 50 50 48 45 29 18 22 20 25 22 20 21 19 13 16 23 29 34 38 39 28 28 27 26 23 22 19 12 16 28 35 34 31 34 32 31 20 21 19 27 34 34 32
46 47 49 46 34 30 26 29 22 20 19 16 16 11 10 17 24 30 35 39 34 28 26 27 24 18 13 13 13 19 28 38 36 32 37 34 33 17 21 27 26 27 36 38
44 48 41 31 26 22 23 25 22 17 17 15 12 10 12 19 26 31 36 40 31 24 24 22 19 12 8 9 8 15 26 39 36 36 37 32 28 24 30 26 29 31 33 33
40 34 29 20 19 17 12 24 22 18 15 13 10 11 13 19 27 32 36 41 24 21 22 19 16 16 13 11 6 8 35 42 42 44 43 33 29 22 29 31 34 45 38 39
Wind_Direction
303 302 303 302 302 302 301 300 299 298 296 297 298 298 295 292 293 294 294 293 291 290 289 288 286 284 283 281 281 279 278 276 274 271 268 270 270 267 265 265 266 266 262 261
303 304 304 303 302 302 302 302 300 299 299 298 298 301 299 298 297 295 294 291 288 287 285 283 282 281 280 279 278 277 277 277 276 276 274 271 269 268 268 266 265 264 261 251
304 305 304 302 303 302 301 301 300 299 298 299 298 298 296 297 296 296 293 293 291 289 287 286 284 282 280 279 278 277 275 272 270 270 270 268 268 268 263 258 259 257 258 249
305 305 302 300 300 302 303 304 304 304 304 304 303 303 304 301 298 296 295 292 291 290 290 289 287 286 284 283 281 279 277 273 269 266 264 260 258 257 261 261 254 244 248 241
307 305 304 305 306 307 309 308 308 307 305 302 300 298 301 299 298 296 296 294 293 291 291 290 290 287 285 284 283 280 277 273 261 257 253 252 253 247 246 258 256 248 251 245
310 308 309 309 309 309 307 306 306 306 304 305 306 303 305 302 298 297 295 293 294 293 291 288 286 285 285 284 284 282 276 268 261 257 252 251 248 245 242 254 253 253 252 255
310 310 311 312 310 309 310 310 309 308 307 304 303 301 305 300 299 299 297 295 293 292 290 288 287 286 288 284 281 277 274 275 274 260 254 252 253 252 244 248 241 251 252 257
311 313 314 314 316 314 314 313 309 306 305 303 302 301 304 302 304 299 296 294 294 293 293 291 288 284 278 274 274 279 281 284 288 270 267 259 256 249 248 249 245 250 257 265
315 316 317 317 314 313 310 307 306 302 301 299 300 300 305 307 304 300 298 299 299 299 297 296 288 277 270 272 275 282 289 282 301 268 267 271 244 250 240 243 240 245 254 260
316 317 318 314 313 310 309 308 305 304 303 301 302 304 308 307 304 301 304 304 304 305 302 298 292 281 277 270 273 276 281 287 285 264 238 236 249 244 240 235 228 246 251 240
318 316 316 316 310 308 306 304 304 302 302 301 304 306 311 305 299 300 303 303 305 300 300 300 295 290 285 283 278 274 274 277 277 264 255 233 227 223 210 208 207 232 239 216
316 314 315 314 310 307 307 306 305 303 303 301 301 306 312 301 302 305 305 306 306 307 303 299 295 291 294 292 284 277 269 268 257 259 252 247 193 198 207 216 213 229 218 204
315 314 313 311 308 310 310 310 306 301 300 303 299 311 303 301 303 303 306 307 309 307 306 308 307 305 301 302 290 272 244 250 241 245 247 220 198 205 208 206 210 217 197 193
312 311 310 310 308 308 307 304 302 301 298 298 303 302 306 304 305 306 307 311 315 317 316 313 309 307 306 302 303 272 239 237 226 226 235 198 212 206 202 204 209 210 198 185
308 308 308 308 309 307 304 306 302 296 299 298 304 302 306 306 306 307 310 316 316 314 314 313 312 307 303 302 297 287 236 228 217 215 219 203 203 198 204 210 212 211 185 187
308 309 307 309 309 303 304 306 300 299 299 298 299 309 295 298 303 308 315 315 316 317 316 315 315 312 308 303 294 287 249 214 228 220 207 198 200 192 201 209 200 197 199 199
309 308 308 310 303 300 308 301 298 300 296 293 299 299 292 297 301 311 318 322 324 320 316 311 308 307 301 291 283 275 245 226 218 212 202 186 190 191 198 193 191 184 189 199
310 308 307 307 303 303 308 301 300 297 293 295 300 291 290 294 305 312 321 327 331 327 319 310 305 298 289 281 267 261 257 225 212 201 196 189 186 189 198 196 188 188 190 198
311 308 307 305 304 308 309 302 295 291 282 291 289 290 287 292 305 317 325 330 332 329 321 317 309 291 280 276 266 252 243 243 200 196 189 191 189 186 196 197 194 194 197 200
307 305 302 303 303 304 308 303 288 274 281 297 298 286 282 291 307 319 326 328 331 328 322 325 325 297 276 272 261 241 231 227 198 197 192 191 185 178 176 191 198 207 207 190
303 301 302 301 298 303 301 297 280 273 281 299 299 287 280 295 312 323 327 330 332 330 329 326 321 307 280 270 258 227 213 213 194 195 191 178 174 182 187 199 205 207 200 166
305 303 301 299 299 300 295 282 268 272 274 294 299 278 284 301 318 325 329 331 333 328 324 322 317 306 291 277 260 224 206 202 192 187 180 175 175 166 164 184 185 182 149 153
305 303 301 302 302 297 254 253 257 263 270 288 288 275 286 310 323 327 331 335 336 328 325 328 317 311 307 303 285 236 209 190 184 179 178 175 187 162 172 146 156 146 152 180
304 300 302 306 310 300 268 237 245 251 278 283 283 274 294 316 323 329 335 340 333 327 337 325 330 330 314 288 273 219 197 178 179 172 161 175 167 138 162 147 138 148 153 148
301 305 311 319 324 296 277 230 229 254 271 284 284 263 298 320 326 331 337 338 336 344 333 339 340 357 336 298 289 232 176 172 169 158 163 159 157 151 154 144 138 142 163 170
310 313 315 317 309 292 267 222 222 242 266 290 256 263 304 321 326 334 339 338 344 343 337 347 343 338 319 299 252 201 164 163 153 155 159 151 142 139 144 160 150 147 145 156
Height
5832 5831 5828 5826 5823 5820 5817 5814 5811 5808 5803 5802 5797 5794 5789 5783 5778 5774 5768 5761 5755 5750 5744 5738 5731 5725 5719 5714 5712 5710 5708 5707 5707 5708 5708 5705 5704 5705 5707 5709 5711 5713 5715 5718
5828 5825 5823 5819 5816 5812 5808 5804 5801 5798 5792 5787 5784 5783 5772 5767 5762 5756 5750 5744 5738 5733 5727 5720 5714 5707 5701 5696 5693 5690 5687 5685 5683 5683 5684 5686 5686 5685 5687 5691 5693 5696 5700 5704
5821 5819 5815 5811 5808 5804 5799 5794 5789 5784 5779 5773 5767 5768 5758 5752 5745 5738 5731 5726 5718 5710 5704 5697 5691 5685 5680 5675 5671 5668 5665 5664 5664 5663 5661 5663 5664 5666 5668 5670 5675 5680 5684 5689
5814 5811 5807 5803 5798 5794 5789 5784 5779 5773 5766 5762 5753 5746 5749 5736 5726 5718 5712 5705 5698 5689 5681 5674 5668 5662 5655 5651 5647 5644 5641 5640 5639 5641 5643 5643 5646 5649 5653 5654 5659 5665 5669 5673
5808 5802 5797 5793 5789 5783 5778 5772 5767 5761 5751 5743 5738 5726 5730 5720 5710 5698 5690 5681 5674 5666 5660 5649 5641 5637 5631 5625 5622 5620 5618 5616 5617 5621 5623 5627 5631 5632 5636 5640 5644 5651 5654 5659
5798 5792 5787 5781 5774 5769 5762 5755 5750 5742 5733 5726 5719 5709 5710 5696 5685 5678 5670 5660 5653 5645 5636 5630 5623 5617 5615 5610 5606 5603 5602 5601 5603 5606 5608 5613 5615 5618 5624 5628 5633 5638 5641 5645
5788 5781 5776 5771 5763 5755 5747 5739 5730 5727 5718 5709 5698 5685 5689 5672 5665 5657 5648 5641 5633 5626 5618 5611 5607 5603 5600 5596 5593 5590 5590 5591 5593 5594 5596 5600 5604 5606 5612 5615 5620 5626 5631 5635
5777 5772 5764 5756 5749 5740 5731 5722 5710 5696 5694 5688 5683 5670 5670 5654 5646 5635 5627 5621 5615 5609 5601 5596 5593 5589 5587 5585 5584 5581 5579 5581 5582 5583 5584 5588 5593 5595 5600 5604 5612 5617 5622 5625
5765 5760 5752 5743 5733 5726 5715 5706 5693 5676 5673 5660 5655 5655 5654 5634 5627 5617 5609 5604 5598 5593 5586 5582 5578 5575 5574 5574 5573 5572 5572 5572 5573 5574 5575 5577 5582 5584 5590 5596 5603 5610 5614 5618
5752 5746 5740 5728 5718 5706 5695 5684 5674 5662 5648 5636 5635 5634 5633 5621 5610 5600 5595 5587 5583 5578 5573 5568 5565 5561 5560 5561 5562 5563 5564 5565 5567 5566 5567 5569 5574 5579 5581 5588 5597 5603 5607 5610
5740 5734 5728 5714 5699 5691 5682 5670 5657 5650 5637 5624 5613 5621 5619 5606 5597 5592 5588 5580 5574 5568 5564 5560 5555 5552 5549 5549 5551 5553 5556 5558 5559 5559 5560 5563 5568 5573 5576 5584 5591 5596 5600 5604
5726 5715 5711 5700 5681 5672 5665 5652 5641 5630 5626 5619 5606 5603 5605 5592 5586 5580 5576 5572 5567 5560 5556 5552 5548 5544 5541 5540 5540 5542 5545 5550 5551 5552 5554 5555 5560 5567 5573 5579 5585 5588 5595 5599
5708 5696 5685 5683 5664 5653 5646 5635 5624 5616 5609 5609 5593 5593 5591 5585 5579 5574 5567 5564 5559 5554 5550 5546 5542 5538 5535 5532 5531 5533 5536 5541 5544 5547 5548 5549 5555 5561 5567 5574 5578 5582 5589 5594
5687 5679 5669 5656 5648 5640 5636 5629 5617 5606 5598 5592 5594 5580 5582 5575 5570 5567 5563 5557 5552 5548 5543 5539 5535 5532 5530 5528 5527 5528 5530 5534 5538 5540 5542 5545 5551 5556 5563 5569 5573 5578 5585 5590
5668 5661 5652 5645 5633 5624 5618 5615 5610 5596 5590 5579 5581 5575 5570 5568 5565 5561 5557 5553 5548 5543 5538 5533 5529 5527 5524 5523 5523 5523 5523 5527 5531 5534 5538 5542 5547 5553 5558 5564 5569 5574 5580 5586
5652 5642 5632 5634 5622 5608 5606 5603 5593 5589 5580 5573 5569 5570 5565 5562 5560 5557 5553 5548 5542 5537 5531 5526 5523 5521 5518 5517 5517 5518 5518 5520 5523 5528 5532 5538 5543 5549 5553 5558 5565 5570 5577 5582
5640 5624 5614 5613 5609 5597 5599 5591 5584 5579 5573 5567 5565 5563 5559 5558 5556 5553 5549 5543 5537 5531 5524 5520 5515 5514 5512 5511 5510 5512 5513 5516 5518 5522 5526 5533 5539 5544 5548 5553 5559 5566 5571 5577
5623 5613 5603 5595 5593 5590 5587 5577 5574 5571 5567 5562 5559 5557 5555 5553 5552 5548 5543 5537 5531 5524 5518 5511 5506 5504 5503 5503 5503 5505 5507 5511 5512 5515 5522 5528 5534 5539 5544 5548 5553 5560 5566 5574
5610 5603 5592 5584 5575 5577 5578 5570 5566 5563 5563 5558 5556 5553 5551 5550 5548 5544 5539 5533 5526 5517 5510 5503 5497 5494 5495 5495 5496 5498 5501 5504 5507 5511 5517 5523 5530 5536 5541 5546 5551 5557 5565 5572
5597 5592 5584 5578 5569 5564 5565 5562 5558 5556 5556 5554 5551 5550 5547 5546 5545 5542 5536 5529 5523 5513 5504 5499 5493 5489 5488 5488 5489 5491 5495 5499 5503 5507 5512 5520 5527 5533 5539 5545 5551 5556 5561 5564
5589 5583 5573 5565 5559 5560 5555 5553 5552 5552 5553 5550 5547 5545 5544 5543 5540 5537 5531 5524 5516 5507 5501 5495 5491 5487 5484 5482 5482 5484 5488 5492 5499 5503 5510 5518 5526 5531 5536 5544 5549 5554 5559 5566
5570 5565 5563 5558 5552 5550 5548 5546 5546 5545 5547 5544 5543 5541 5541 5540 5537 5533 5526 5519 5511 5503 5497 5491 5487 5483 5478 5475 5474 5477 5480 5485 5493 5500 5509 5518 5525 5530 5536 5544 5548 5555 5561 5570
5562 5550 5547 5546 5541 5540 5540 5538 5539 5540 5541 5541 5539 5538 5538 5537 5534 5529 5523 5515 5506 5498 5492 5486 5481 5477 5473 5470 5470 5471 5473 5481 5490 5499 5508 5517 5523 5529 5537 5543 5547 5555 5564 5574
5551 5540 5536 5533 5535 5530 5528 5529 5532 5534 5536 5536 5536 5536 5536 5534 5531 5526 5519 5510 5501 5494 5488 5482 5476 5472 5469 5467 5466 5465 5471 5480 5491 5500 5511 5519 5524 5532 5539 5545 5552 5559 5570 5579
5536 5532 5528 5526 5523 5518 5521 5523 5528 5531 5531 5532 5533 5534 5534 5531 5528 5523 5515 5506 5496 5490 5484 5478 5473 5470 5467 5466 5465 5466 5474 5485 5495 5505 5513 5521 5530 5537 5541 5548 5554 5563 5573 5585
5528 5525 5520 5517 5514 5510 5514 5517 5525 5528 5529 5530 5530 5532 5531 5529 5525 5520 5512 5501 5493 5488 5481 5477 5472 5469 5467 5465 5464 5466 5474 5486 5499 5509 5517 5526 5533 5540 5546 5552 5558 5567 5579 5588